星链-34936(STARLINK-34936)

导读 | 豆包AI

STARLINK-34936是美国SpaceX公司于2025年10月7日发射的星链卫星,属于星链全球互联网卫星星座计划,运行在近地轨道。该卫星旨在帮助星链实现全球覆盖,特别是为传统基础设施缺乏的偏远地区提供高速低延迟宽带互联网服务,推动全球网络互联互通能力提升。

Basic Information
目录编号:
65898
目录名称:
STARLINK-34936
国际标识:
2025-224S
轨道中心:
EARTH
卫星名称:
星链-34936
卫星全名:
星链-34936(STARLINK-34936)
卫星状态:
在轨 (已飞行158 天)
发射日期:
2025-10-07 UTC
国别 :
美国 (US)
星等 :
--
Orbit Information
数据来源 国际轨道数据 AOE轨道数据
星历时间 2026-03-14T06:08:50+0800
12小时前
查看轨道信息
2026-03-11T17:00:00+0800
3天前
查看轨道信息
半长轴 6853.31km 6853.394km
偏心率 0.0001203 0.0001187
轨道倾角 53.160° 53.151°
近地点辐角 95.341° 34.103°
升交点赤经 351.595° 3.434°
平近点角 264.772° 323.092°
近地点 474.348km 474.443km
远地点 475.998km 476.071km
周期 94.104分钟 94.106分钟
每日圈数 15.302143 15.301862
Detailed Information
固有亮度:
5
最大亮度:
2.5
卫星平台:
Starlink V1.0
覆盖范围:
全球
运营商:
太空探索技术公司
运营商所在国:
美国
制造商(研发单位):
太空探索技术公司
制造商所在国:
美国
使用方式:
暂无
Satellite Introduction
Starlink 计划是 SpaceX 推出的全球卫星互联网项目,通过发射低轨道卫星,为全球尤其是偏远地区提供高速、低延迟的互联网服务。自 2019 年起,Starlink 已部署数千颗卫星,旨在缩小全球数字鸿沟,推动互联网普及。该项目还为军事、航空等行业提供通信支持,带来广泛经济效益。
2D Orbit Map
3D Orbit Map
Orbit Altitude Analysis Chart
Orbit Inclination Analysis Chart
Orbit Comprehensive Analysis Chart
View Comprehensive Chart